| time (UTC) | temp F | wind direction | speed knots | gust knots | rain 1hr in | rain 24hr in | rain mn in | humidity % | barometer mb |
| 20260508083003 | 47 | 223 | 4.3 | 4.3 | 0.00 | 0.00 | 0.00 | 71 | 1013.5 |
| 20260508082459 | 47 | 223 | 2.6 | 3.5 | 0.00 | 0.00 | 0.00 | 71 | 1013.5 |
| 20260508081957 | 47 | 267 | 1.7 | 2.6 | 0.00 | 0.00 | 0.00 | 71 | 1013.5 |
| 20260508081454 | 47 | 237 | 0.0 | 2.6 | 0.00 | 0.00 | 0.00 | 70 | 1013.5 |
| 20260508080950 | 47 | 221 | 0.9 | 2.6 | 0.00 | 0.00 | 0.00 | 70 | 1013.7 |
| 20260508080448 | 47 | 264 | 1.7 | 2.6 | 0.00 | 0.00 | 0.00 | 70 | 1013.7 |
| 20260508075945 | 47 | 280 | 1.7 | 6.1 | 0.00 | 0.00 | 0.00 | 70 | 1013.5 |
| 20260508075442 | 47 | 232 | 1.7 | 3.5 | 0.00 | 0.00 | 0.00 | 71 | 1013.5 |
| 20260508074939 | 47 | 227 | 3.5 | 4.3 | 0.00 | 0.00 | 0.00 | 71 | 1013.5 |
| 20260508074437 | 48 | 220 | 1.7 | 7.0 | 0.00 | 0.00 | 0.00 | 70 | 1013.5 |
| 20260508073934 | 48 | 212 | 4.3 | 8.7 | 0.00 | 0.00 | 0.00 | 68 | 1013.7 |
| 20260508073431 | 49 | 280 | 4.3 | 10.4 | 0.00 | 0.00 | 0.00 | 66 | 1013.7 |
| 20260508072928 | 49 | 154 | 7.0 | 18.2 | 0.00 | 0.00 | 0.00 | 62 | 1013.7 |
| 20260508072424 | 49 | 255 | 3.5 | 8.7 | 0.00 | 0.00 | 0.00 | 61 | 1013.9 |
| 20260508071921 | 48 | 239 | 6.1 | 8.7 | 0.00 | 0.00 | 0.00 | 61 | 1013.9 |
| 20260508071419 | 48 | 231 | 1.7 | 3.5 | 0.00 | 0.00 | 0.00 | 62 | 1013.8 |
| 20260508070917 | 47 | 237 | 1.7 | 6.1 | 0.00 | 0.00 | 0.00 | 64 | 1013.9 |
| 20260508070415 | 47 | 261 | 2.6 | 3.5 | 0.00 | 0.00 | 0.00 | 64 | 1013.8 |
| 20260508065912 | 47 | 271 | 1.7 | 4.3 | 0.00 | 0.00 | 0.00 | 65 | 1013.7 |
| 20260508065410 | 47 | 227 | 1.7 | 2.6 | 0.00 | 0.00 | 0.00 | 64 | 1013.7 |
| 20260508064908 | 47 | 230 | 0.9 | 0.9 | 0.00 | 0.00 | 0.00 | 64 | 1013.8 |
| 20260508064405 | 46 | 185 | 0.9 | 0.9 | 0.00 | 0.00 | 0.00 | 64 | 1013.5 |
| 20260508063903 | 46 | 186 | 0.0 | 0.9 | 0.00 | 0.00 | 0.00 | 64 | 1013.8 |
| 20260508063400 | 46 | 182 | 2.6 | 2.6 | 0.00 | 0.00 | 0.00 | 64 | 1013.5 |
| 20260508062857 | 46 | 232 | 0.9 | 0.9 | 0.00 | 0.00 | 0.00 | 65 | 1013.7 |
| 20260508062355 | 46 | 235 | 0.0 | 2.6 | 0.00 | 0.00 | 0.00 | 66 | 1014.0 |
| 20260508061852 | 46 | 235 | 0.9 | 2.6 | 0.00 | 0.00 | 0.00 | 66 | 1013.8 |
| 20260508061349 | 46 | 223 | 0.0 | 0.9 | 0.00 | 0.00 | 0.00 | 64 | 1013.8 |
| 20260508060845 | 46 | 222 | 0.9 | 0.9 | 0.00 | 0.00 | 0.00 | 64 | 1013.8 |
| 20260508060343 | 47 | 222 | 0.9 | 2.6 | 0.00 | 0.00 | 0.00 | 64 | 1013.8 |
| 20260508055838 | 47 | 225 | 0.9 | 0.9 | 0.00 | 0.00 | 0.00 | 62 | 1013.8 |
| 20260508055336 | 47 | 226 | 0.9 | 0.9 | 0.00 | 0.00 | 0.00 | 62 | 1013.8 |
| 20260508054832 | 47 | 235 | 0.9 | 0.9 | 0.00 | 0.00 | 0.00 | 63 | 1013.9 |
| 20260508054330 | 47 | 234 | 0.9 | 2.6 | 0.00 | 0.00 | 0.00 | 62 | 1014.0 |
| 20260508053826 | 47 | 220 | 0.9 | 0.9 | 0.00 | 0.00 | 0.00 | 62 | 1014.1 |
| 20260508053324 | 47 | 221 | 0.9 | 2.6 | 0.00 | 0.00 | 0.00 | 60 | 1014.2 |
| 20260508052821 | 47 | 214 | 0.0 | 0.9 | 0.00 | 0.00 | 0.00 | 62 | 1014.1 |
| 20260508052318 | 47 | 213 | 0.0 | 0.0 | 0.00 | 0.00 | 0.00 | 61 | 1014.2 |
| 20260508051815 | 47 | 213 | 0.0 | 0.0 | 0.00 | 0.00 | 0.00 | 62 | 1014.3 |
| 20260508051310 | 47 | 213 | 0.9 | 2.6 | 0.00 | 0.00 | 0.00 | 61 | 1014.4 |
| 20260508050807 | 47 | 218 | 0.9 | 0.9 | 0.00 | 0.00 | 0.00 | 61 | 1014.4 |
| 20260508050304 | 47 | 201 | 0.0 | 0.0 | 0.00 | 0.00 | 0.00 | 61 | 1014.3 |
| 20260508045759 | 47 | 274 | 0.0 | 0.9 | 0.00 | 0.00 | 0.00 | 62 | 1014.4 |
| 20260508045257 | 47 | 281 | 0.0 | 0.9 | 0.00 | 0.00 | 0.00 | 63 | 1014.3 |
| 20260508044755 | 47 | 219 | 2.6 | 3.5 | 0.00 | 0.00 | 0.00 | 62 | 1014.4 |
| 20260508044251 | 47 | 253 | 0.9 | 3.5 | 0.00 | 0.00 | 0.00 | 63 | 1014.4 |
| 20260508043747 | 47 | 261 | 0.0 | 0.9 | 0.00 | 0.00 | 0.00 | 63 | 1014.3 |
| 20260508043245 | 47 | 270 | 0.9 | 2.6 | 0.00 | 0.00 | 0.00 | 62 | 1014.2 |
| 20260508042741 | 47 | 219 | 2.6 | 4.3 | 0.00 | 0.00 | 0.00 | 62 | 1014.4 |
| 20260508042239 | 46 | 316 | 0.0 | 3.5 | 0.00 | 0.00 | 0.00 | 64 | 1014.4 |
| 20260508041735 | 46 | 291 | 0.9 | 2.6 | 0.00 | 0.00 | 0.00 | 64 | 1014.4 |
| 20260508041232 | 45 | 285 | 3.5 | 8.7 | 0.00 | 0.00 | 0.00 | 66 | 1014.2 |
| 20260508040728 | 43 | 224 | 2.6 | 4.3 | 0.00 | 0.00 | 0.00 | 72 | 1014.4 |
| 20260508040226 | 42 | 307 | 0.9 | 0.9 | 0.00 | 0.00 | 0.00 | 78 | 1014.2 |
| 20260508035723 | 41 | 308 | 0.9 | 0.9 | 0.00 | 0.00 | 0.00 | 80 | 1014.3 |
| 20260508035221 | 41 | 308 | 0.0 | 0.0 | 0.00 | 0.00 | 0.00 | 79 | 1014.4 |
| 20260508034717 | 41 | 308 | 0.0 | 0.0 | 0.00 | 0.00 | 0.00 | 77 | 1014.3 |
| 20260508034215 | 41 | 308 | 0.0 | 0.0 | 0.00 | 0.00 | 0.00 | 77 | 1014.3 |
| 20260508033711 | 40 | 307 | 1.7 | 0.9 | 0.00 | 0.00 | 0.00 | 79 | 1014.4 |
| 20260508033210 | 40 | 309 | 0.9 | 0.9 | 0.00 | 0.00 | 0.00 | 83 | 1014.2 |
| 20260508032707 | 40 | 309 | 0.0 | 0.0 | 0.00 | 0.00 | 0.00 | 82 | 1014.3 |
| 20260508032204 | 40 | 310 | 0.0 | 0.0 | 0.00 | 0.00 | 0.00 | 83 | 1014.2 |
| 20260508031701 | 40 | 310 | 0.0 | 0.0 | 0.00 | 0.00 | 0.00 | 83 | 1014.2 |
| 20260508031156 | 40 | 310 | 0.0 | 0.0 | 0.00 | 0.00 | 0.00 | 82 | 1014.2 |
| 20260508030653 | 40 | 310 | 0.0 | 0.0 | 0.00 | 0.00 | 0.00 | 80 | 1014.2 |
| 20260508030151 | 40 | 309 | 0.0 | 0.0 | 0.00 | 0.00 | 0.00 | 79 | 1014.1 |
| 20260508025647 | 40 | 309 | 0.0 | 0.0 | 0.00 | 0.00 | 0.00 | 76 | 1014.3 |
| 20260508025144 | 40 | 310 | 0.0 | 0.0 | 0.00 | 0.00 | 0.00 | 75 | 1014.2 |
| 20260508024640 | 41 | 309 | 0.0 | 0.0 | 0.00 | 0.00 | 0.00 | 74 | 1014.2 |
| 20260508024137 | 41 | 309 | 0.0 | 0.0 | 0.00 | 0.00 | 0.00 | 73 | 1014.3 |
| 20260508023633 | 42 | 309 | 0.0 | 0.0 | 0.00 | 0.00 | 0.00 | 73 | 1014.3 |
| 20260508023132 | 42 | 309 | 0.0 | 0.0 | 0.00 | 0.00 | 0.00 | 73 | 1014.2 |
| 20260508022627 | 41 | 309 | 0.0 | 0.9 | 0.00 | 0.00 | 0.00 | 74 | 1014.3 |
| 20260508022124 | 41 | 310 | 0.0 | 0.0 | 0.00 | 0.00 | 0.00 | 72 | 1014.2 |
| 20260508021620 | 41 | 309 | 0.0 | 0.0 | 0.00 | 0.00 | 0.00 | 72 | 1014.1 |
| 20260508021116 | 42 | 309 | 0.0 | 0.0 | 0.00 | 0.00 | 0.00 | 71 | 1014.3 |
| 20260508020614 | 42 | 310 | 0.0 | 0.0 | 0.00 | 0.00 | 0.00 | 73 | 1014.2 |
| 20260508020111 | 43 | 310 | 0.0 | 0.0 | 0.00 | 0.00 | 0.00 | 70 | 1014.2 |
| 20260508015609 | 43 | 310 | 0.0 | 0.0 | 0.00 | 0.00 | 0.00 | 66 | 1014.2 |
| 20260508015105 | 43 | 310 | 0.0 | 0.0 | 0.00 | 0.00 | 0.00 | 65 | 1014.0 |
| 20260508014601 | 43 | 309 | 0.0 | 0.0 | 0.00 | 0.00 | 0.00 | 63 | 1014.0 |
| 20260508014058 | 44 | 309 | 0.0 | 0.0 | 0.00 | 0.00 | 0.00 | 63 | 1014.1 |
| 20260508013554 | 45 | 310 | 0.0 | 0.0 | 0.00 | 0.00 | 0.00 | 63 | 1014.1 |
| 20260508013051 | 45 | 310 | 0.0 | 0.0 | 0.00 | 0.00 | 0.00 | 58 | 1014.2 |
| 20260508012548 | 45 | 309 | 0.0 | 0.0 | 0.00 | 0.00 | 0.00 | 54 | 1014.1 |
| 20260508012046 | 46 | 310 | 0.0 | 0.0 | 0.00 | 0.00 | 0.00 | 54 | 1014.0 |
| 20260508011544 | 46 | 310 | 0.0 | 0.0 | 0.00 | 0.00 | 0.00 | 54 | 1014.0 |
| 20260508011041 | 46 | 310 | 0.0 | 0.0 | 0.00 | 0.00 | 0.00 | 53 | 1014.1 |
| 20260508010538 | 47 | 309 | 0.0 | 0.0 | 0.00 | 0.00 | 0.00 | 50 | 1014.0 |
| 20260508010035 | 48 | 310 | 0.0 | 0.0 | 0.00 | 0.00 | 0.00 | 49 | 1014.0 |
| 20260508005532 | 48 | 310 | 0.0 | 0.0 | 0.00 | 0.00 | 0.00 | 47 | 1013.9 |
| 20260508005028 | 49 | 309 | 0.0 | 0.0 | 0.00 | 0.00 | 0.00 | 44 | 1013.8 |
| 20260508004524 | 50 | 309 | 0.0 | 0.9 | 0.00 | 0.00 | 0.00 | 43 | 1013.7 |
| 20260508004021 | 50 | 309 | 0.0 | 0.9 | 0.00 | 0.00 | 0.00 | 43 | 1013.9 |
| 20260508003518 | 51 | 309 | 0.0 | 0.9 | 0.00 | 0.00 | 0.00 | 43 | 1013.7 |
| 20260508003015 | 51 | 319 | 2.6 | 2.6 | 0.00 | 0.00 | 0.00 | 40 | 1013.7 |
| 20260508002511 | 51 | 345 | 3.5 | 4.3 | 0.00 | 0.00 | 0.00 | 40 | 1013.5 |
| 20260508002009 | 51 | 357 | 2.6 | 4.3 | 0.00 | 0.00 | 0.00 | 39 | 1013.5 |
| 20260508001504 | 52 | 352 | 1.7 | 3.5 | 0.00 | 0.00 | 0.00 | 39 | 1013.5 |
| 20260508001001 | 52 | 355 | 1.7 | 2.6 | 0.00 | 0.00 | 0.00 | 39 | 1013.5 |
| 20260508000457 | 52 | 341 | 2.6 | 3.5 | 0.00 | 0.00 | 0.00 | 37 | 1013.4 |
| 20260507235954 | 52 | 285 | 4.3 | 4.3 | 0.00 | 0.00 | 0.00 | 38 | 1013.2 |
| 20260507235450 | 53 | 332 | 0.9 | 6.1 | 0.00 | 0.00 | 0.00 | 38 | 1013.3 |
| 20260507234948 | 53 | 331 | 5.2 | 9.6 | 0.00 | 0.00 | 0.00 | 37 | 1013.1 |
| 20260507234444 | 53 | 344 | 1.7 | 7.0 | 0.00 | 0.00 | 0.00 | 37 | 1013.1 |
| 20260507233941 | 53 | 313 | 4.3 | 4.3 | 0.00 | 0.00 | 0.00 | 37 | 1013.1 |
| 20260507233438 | 53 | 295 | 4.3 | 6.1 | 0.00 | 0.00 | 0.00 | 36 | 1012.9 |
| 20260507232937 | 54 | 306 | 5.2 | 10.4 | 0.00 | 0.00 | 0.00 | 36 | 1013.0 |
| 20260507232432 | 54 | 307 | 2.6 | 6.1 | 0.00 | 0.00 | 0.00 | 38 | 1013.1 |
| 20260507231930 | 54 | 357 | 1.7 | 3.5 | 0.00 | 0.00 | 0.00 | 39 | 1013.0 |
| 20260507231426 | 54 | 300 | 3.5 | 8.7 | 0.00 | 0.00 | 0.00 | 37 | 1013.2 |
| 20260507230923 | 55 | 279 | 2.6 | 3.5 | 0.00 | 0.00 | 0.00 | 36 | 1013.2 |
| 20260507230420 | 55 | 267 | 3.5 | 3.5 | 0.00 | 0.00 | 0.00 | 37 | 1013.1 |
| 20260507225920 | 55 | 307 | 1.7 | 4.3 | 0.00 | 0.00 | 0.00 | 37 | 1012.9 |
| 20260507225417 | 55 | 249 | 6.1 | 6.1 | 0.00 | 0.00 | 0.00 | 40 | 1013.1 |
| 20260507224913 | 55 | 14 | 3.5 | 4.3 | 0.00 | 0.00 | 0.00 | 40 | 1012.9 |
| 20260507224409 | 54 | 256 | 2.6 | 4.3 | 0.00 | 0.00 | 0.00 | 42 | 1013.1 |
| 20260507223906 | 54 | 343 | 8.7 | 9.6 | 0.00 | 0.00 | 0.00 | 41 | 1013.3 |
| 20260507223402 | 54 | 335 | 4.3 | 12.2 | 0.00 | 0.00 | 0.00 | 42 | 1013.3 |
| 20260507222859 | 54 | 326 | 4.3 | 10.4 | 0.00 | 0.00 | 0.00 | 43 | 1013.3 |
| 20260507222356 | 54 | 275 | 4.3 | 15.6 | 0.00 | 0.00 | 0.00 | 44 | 1013.1 |
| 20260507221853 | 54 | 342 | 7.8 | 12.2 | 0.00 | 0.00 | 0.00 | 42 | 1013.0 |
| 20260507221349 | 54 | 292 | 5.2 | 10.4 | 0.00 | 0.00 | 0.00 | 44 | 1013.3 |
| 20260507220845 | 54 | 313 | 1.7 | 6.1 | 0.00 | 0.00 | 0.00 | 47 | 1013.0 |
| 20260507220344 | 54 | 331 | 4.3 | 16.5 | 0.00 | 0.00 | 0.00 | 47 | 1013.1 |
| 20260507215839 | 54 | 331 | 3.5 | 7.0 | 0.00 | 0.00 | 0.00 | 47 | 1012.9 |
| 20260507215336 | 55 | 315 | 5.2 | 10.4 | 0.00 | 0.00 | 0.00 | 45 | 1012.8 |
| 20260507214833 | 56 | 329 | 4.3 | 9.6 | 0.00 | 0.00 | 0.00 | 43 | 1012.5 |
| 20260507214331 | 56 | 344 | 3.5 | 10.4 | 0.00 | 0.00 | 0.00 | 41 | 1012.6 |
| 20260507213826 | 55 | 7 | 7.0 | 9.6 | 0.00 | 0.00 | 0.00 | 35 | 1012.6 |
| 20260507213323 | 56 | 273 | 9.6 | 13.9 | 0.00 | 0.00 | 0.00 | 37 | 1012.6 |
| 20260507212820 | 56 | 318 | 2.6 | 7.0 | 0.00 | 0.00 | 0.00 | 40 | 1012.5 |
| 20260507212316 | 55 | 326 | 3.5 | 4.3 | 0.00 | 0.00 | 0.00 | 41 | 1012.4 |
| 20260507211812 | 55 | 325 | 8.7 | 9.6 | 0.00 | 0.00 | 0.00 | 39 | 1012.4 |
| 20260507211309 | 56 | 325 | 6.1 | 8.7 | 0.00 | 0.00 | 0.00 | 38 | 1012.4 |
| 20260507210806 | 55 | 273 | 4.3 | 8.7 | 0.00 | 0.00 | 0.00 | 38 | 1012.3 |
| 20260507210303 | 56 | 273 | 7.8 | 13.0 | 0.00 | 0.00 | 0.00 | 38 | 1012.0 |
| 20260507205759 | 58 | 321 | 4.3 | 10.4 | 0.00 | 0.00 | 0.00 | 37 | 1012.2 |
| 20260507205257 | 59 | 321 | 2.6 | 8.7 | 0.00 | 0.00 | 0.00 | 37 | 1012.0 |
| 20260507204752 | 59 | 336 | 2.6 | 4.3 | 0.00 | 0.00 | 0.00 | 34 | 1012.0 |
| 20260507204250 | 57 | 257 | 7.0 | 12.2 | 0.00 | 0.00 | 0.00 | 36 | 1012.1 |
| 20260507203748 | 56 | 265 | 6.1 | 8.7 | 0.00 | 0.00 | 0.00 | 37 | 1011.8 |
| 20260507203245 | 56 | 284 | 3.5 | 8.7 | 0.00 | 0.00 | 0.00 | 41 | 1012.0 |
| 20260507202741 | 56 | 292 | 3.5 | 6.1 | 0.00 | 0.00 | 0.00 | 38 | 1012.0 |
| 20260507202237 | 56 | 309 | 1.7 | 8.7 | 0.00 | 0.00 | 0.00 | 40 | 1012.1 |
| 20260507201732 | 57 | 324 | 5.2 | 13.0 | 0.00 | 0.00 | 0.00 | 37 | 1012.0 |
| 20260507201230 | 58 | 300 | 3.5 | 6.1 | 0.00 | 0.00 | 0.00 | 36 | 1012.0 |
| 20260507200726 | 59 | 358 | 3.5 | 8.7 | 0.00 | 0.00 | 0.00 | 36 | 1011.9 |
| 20260507200222 | 60 | 336 | 3.5 | 4.3 | 0.00 | 0.00 | 0.00 | 35 | 1012.1 |
| 20260507195718 | 61 | 239 | 3.5 | 7.0 | 0.00 | 0.00 | 0.00 | 32 | 1011.9 |
| 20260507195216 | 60 | 301 | 6.1 | 13.0 | 0.00 | 0.00 | 0.00 | 34 | 1012.0 |
| 20260507194713 | 60 | 285 | 2.6 | 7.0 | 0.00 | 0.00 | 0.00 | 38 | 1012.1 |
| 20260507194209 | 59 | 327 | 3.5 | 13.9 | 0.00 | 0.00 | 0.00 | 38 | 1012.3 |
| 20260507193706 | 60 | 261 | 10.4 | 13.0 | 0.00 | 0.00 | 0.00 | 34 | 1012.3 |
| 20260507193202 | 59 | 245 | 4.3 | 6.1 | 0.00 | 0.00 | 0.00 | 36 | 1012.2 |
| 20260507192658 | 59 | 294 | 3.5 | 12.2 | 0.00 | 0.00 | 0.00 | 37 | 1012.3 |
| 20260507192156 | 58 | 220 | 6.1 | 13.9 | 0.00 | 0.00 | 0.00 | 36 | 1012.3 |
| 20260507191651 | 58 | 254 | 3.5 | 9.6 | 0.00 | 0.00 | 0.00 | 35 | 1012.2 |
| 20260507191148 | 58 | 283 | 7.0 | 13.0 | 0.00 | 0.00 | 0.00 | 37 | 1012.4 |
| 20260507190645 | 56 | 294 | 4.3 | 6.1 | 0.00 | 0.00 | 0.00 | 39 | 1012.3 |
| 20260507190144 | 56 | 261 | 6.1 | 10.4 | 0.00 | 0.00 | 0.00 | 37 | 1012.4 |
| 20260507185642 | 56 | 249 | 8.7 | 10.4 | 0.00 | 0.00 | 0.00 | 36 | 1012.4 |
| 20260507185138 | 57 | 268 | 4.3 | 13.9 | 0.00 | 0.00 | 0.00 | 35 | 1012.5 |
| 20260507184636 | 58 | 258 | 4.3 | 9.6 | 0.00 | 0.00 | 0.00 | 36 | 1012.3 |
| 20260507184134 | 59 | 235 | 4.3 | 4.3 | 0.00 | 0.00 | 0.00 | 37 | 1012.3 |
| 20260507183630 | 57 | 0 | 4.3 | 12.2 | 0.00 | 0.00 | 0.00 | 37 | 1012.3 |
| 20260507183127 | 56 | 292 | 3.5 | 4.3 | 0.00 | 0.00 | 0.00 | 37 | 1012.5 |
| 20260507182624 | 56 | 339 | 2.6 | 10.4 | 0.00 | 0.00 | 0.00 | 37 | 1012.5 |
| 20260507182120 | 57 | 296 | 3.5 | 7.0 | 0.00 | 0.00 | 0.00 | 35 | 1012.4 |
| 20260507181616 | 57 | 331 | 2.6 | 4.3 | 0.00 | 0.00 | 0.00 | 40 | 1012.7 |
| 20260507181113 | 56 | 323 | 2.6 | 8.7 | 0.00 | 0.00 | 0.00 | 38 | 1012.6 |
| 20260507180609 | 56 | 292 | 4.3 | 13.0 | 0.00 | 0.00 | 0.00 | 38 | 1012.4 |
| 20260507180107 | 57 | 265 | 3.5 | 13.0 | 0.00 | 0.00 | 0.00 | 37 | 1012.4 |
| 20260507175602 | 56 | 318 | 3.5 | 7.0 | 0.00 | 0.00 | 0.00 | 36 | 1012.5 |
| 20260507175100 | 57 | 244 | 4.3 | 7.0 | 0.00 | 0.00 | 0.00 | 36 | 1012.7 |
| 20260507174557 | 57 | 282 | 2.6 | 7.0 | 0.00 | 0.00 | 0.00 | 39 | 1012.6 |
| 20260507174055 | 58 | 284 | 3.5 | 4.3 | 0.00 | 0.00 | 0.00 | 35 | 1012.4 |
| 20260507173551 | 58 | 277 | 0.9 | 3.5 | 0.00 | 0.00 | 0.00 | 38 | 1012.6 |
| 20260507173049 | 57 | 262 | 4.3 | 7.0 | 0.00 | 0.00 | 0.00 | 37 | 1012.6 |
| 20260507172544 | 58 | 275 | 5.2 | 7.0 | 0.00 | 0.00 | 0.00 | 36 | 1012.6 |
| 20260507172042 | 56 | 213 | 1.7 | 7.0 | 0.00 | 0.00 | 0.00 | 39 | 1012.6 |
| 20260507171536 | 55 | 341 | 2.6 | 3.5 | 0.00 | 0.00 | 0.00 | 36 | 1012.8 |
| 20260507171034 | 56 | 15 | 2.6 | 7.0 | 0.00 | 0.00 | 0.00 | 39 | 1012.7 |
| 20260507170531 | 57 | 291 | 3.5 | 7.0 | 0.00 | 0.00 | 0.00 | 39 | 1012.9 |
| 20260507170028 | 56 | 294 | 3.5 | 6.1 | 0.00 | 0.00 | 0.00 | 39 | 1012.8 |
| 20260507165523 | 57 | 266 | 4.3 | 10.4 | 0.00 | 0.00 | 0.00 | 39 | 1012.9 |
| 20260507165020 | 57 | 295 | 3.5 | 6.1 | 0.00 | 0.00 | 0.00 | 37 | 1012.9 |
| 20260507164516 | 56 | 280 | 1.7 | 6.1 | 0.00 | 0.00 | 0.00 | 41 | 1012.8 |
| 20260507164014 | 57 | 305 | 2.6 | 10.4 | 0.00 | 0.00 | 0.00 | 39 | 1013.0 |
| 20260507163510 | 57 | 8 | 1.7 | 8.7 | 0.00 | 0.00 | 0.00 | 40 | 1012.9 |
| 20260507163009 | 57 | 301 | 0.9 | 3.5 | 0.00 | 0.00 | 0.00 | 36 | 1012.9 |
| 20260507162503 | 56 | 292 | 1.7 | 4.3 | 0.00 | 0.00 | 0.00 | 38 | 1013.1 |
| 20260507162000 | 56 | 289 | 0.9 | 3.5 | 0.00 | 0.00 | 0.00 | 38 | 1012.8 |
| 20260507161456 | 56 | 289 | 3.5 | 12.2 | 0.00 | 0.00 | 0.00 | 42 | 1013.1 |
| 20260507160954 | 56 | 245 | 6.1 | 9.6 | 0.00 | 0.00 | 0.00 | 38 | 1012.8 |
| 20260507160449 | 55 | 226 | 5.2 | 7.0 | 0.00 | 0.00 | 0.00 | 42 | 1013.0 |
| 20260507155945 | 56 | 212 | 3.5 | 6.1 | 0.00 | 0.00 | 0.00 | 39 | 1013.1 |
| 20260507155441 | 55 | 249 | 2.6 | 4.3 | 0.00 | 0.00 | 0.00 | 39 | 1013.1 |
| 20260507154939 | 55 | 217 | 3.5 | 4.3 | 0.00 | 0.00 | 0.00 | 41 | 1013.0 |
| 20260507154435 | 56 | 249 | 7.8 | 10.4 | 0.00 | 0.00 | 0.00 | 41 | 1013.2 |
| 20260507153932 | 56 | 273 | 6.1 | 8.7 | 0.00 | 0.00 | 0.00 | 38 | 1013.2 |
| 20260507153429 | 57 | 270 | 6.1 | 8.7 | 0.00 | 0.00 | 0.00 | 38 | 1013.3 |
| 20260507152925 | 58 | 306 | 3.5 | 6.1 | 0.00 | 0.00 | 0.00 | 36 | 1013.2 |
| 20260507152422 | 57 | 320 | 3.5 | 4.3 | 0.00 | 0.00 | 0.00 | 41 | 1013.2 |
| 20260507151917 | 56 | 89 | 1.7 | 7.0 | 0.00 | 0.00 | 0.00 | 42 | 1013.2 |
| 20260507151414 | 56 | 332 | 3.5 | 3.5 | 0.00 | 0.00 | 0.00 | 42 | 1013.3 |
| 20260507150911 | 55 | 213 | 0.9 | 3.5 | 0.00 | 0.00 | 0.00 | 46 | 1013.3 |
| 20260507150408 | 54 | 334 | 2.6 | 2.6 | 0.00 | 0.00 | 0.00 | 46 | 1013.3 |
| 20260507145905 | 54 | 298 | 0.9 | 4.3 | 0.00 | 0.00 | 0.00 | 50 | 1013.2 |
| 20260507145400 | 54 | 288 | 4.3 | 6.1 | 0.00 | 0.00 | 0.00 | 45 | 1013.2 |
| 20260507144858 | 54 | 276 | 2.6 | 10.4 | 0.00 | 0.00 | 0.00 | 50 | 1013.3 |
| 20260507144355 | 55 | 253 | 5.2 | 8.7 | 0.00 | 0.00 | 0.00 | 48 | 1013.3 |
| 20260507143851 | 55 | 252 | 7.0 | 8.7 | 0.00 | 0.00 | 0.00 | 48 | 1013.7 |
| 20260507143349 | 55 | 345 | 1.7 | 4.3 | 0.00 | 0.00 | 0.00 | 51 | 1013.4 |
| 20260507142845 | 53 | 268 | 1.7 | 3.5 | 0.00 | 0.00 | 0.00 | 51 | 1013.4 |
| 20260507142341 | 54 | 255 | 6.1 | 8.7 | 0.00 | 0.00 | 0.00 | 52 | 1013.5 |
| 20260507141838 | 53 | 279 | 1.7 | 3.5 | 0.00 | 0.00 | 0.00 | 53 | 1013.7 |
| 20260507141335 | 53 | 231 | 4.3 | 6.1 | 0.00 | 0.00 | 0.00 | 56 | 1013.7 |
| 20260507140831 | 53 | 163 | 3.5 | 8.7 | 0.00 | 0.00 | 0.00 | 54 | 1013.5 |
| 20260507140328 | 53 | 288 | 1.7 | 3.5 | 0.00 | 0.00 | 0.00 | 57 | 1013.8 |
| 20260507135826 | 52 | 170 | 1.7 | 4.3 | 0.00 | 0.00 | 0.00 | 57 | 1013.8 |
| 20260507135322 | 52 | 125 | 0.9 | 3.5 | 0.00 | 0.00 | 0.00 | 58 | 1014.1 |
| 20260507134820 | 52 | 270 | 2.6 | 3.5 | 0.00 | 0.00 | 0.00 | 60 | 1013.8 |
| 20260507134316 | 51 | 246 | 2.6 | 3.5 | 0.00 | 0.00 | 0.00 | 59 | 1014.1 |
| 20260507133811 | 51 | 177 | 1.7 | 4.3 | 0.00 | 0.00 | 0.00 | 60 | 1014.0 |
| 20260507133308 | 51 | 251 | 1.7 | 3.5 | 0.00 | 0.00 | 0.00 | 62 | 1014.3 |
| 20260507132806 | 51 | 238 | 2.6 | 2.6 | 0.00 | 0.00 | 0.00 | 62 | 1014.1 |
| 20260507132306 | 51 | 284 | 0.9 | 2.6 | 0.00 | 0.00 | 0.00 | 62 | 1014.1 |
| 20260507131759 | 50 | 263 | 1.7 | 2.6 | 0.00 | 0.00 | 0.00 | 63 | 1014.2 |
| 20260507131256 | 50 | 222 | 2.6 | 3.5 | 0.00 | 0.00 | 0.00 | 62 | 1014.1 |
| 20260507130753 | 50 | 234 | 1.7 | 2.6 | 0.00 | 0.00 | 0.00 | 64 | 1014.1 |
| 20260507130251 | 51 | 289 | 1.7 | 3.5 | 0.00 | 0.00 | 0.00 | 63 | 1014.2 |
| 20260507125749 | 50 | 269 | 1.7 | 2.6 | 0.00 | 0.00 | 0.00 | 63 | 1014.2 |
| 20260507125246 | 49 | 241 | 2.6 | 4.3 | 0.00 | 0.00 | 0.00 | 62 | 1014.1 |
| 20260507124743 | 49 | 300 | 0.9 | 4.3 | 0.00 | 0.00 | 0.00 | 62 | 1014.0 |
| 20260507124240 | 49 | 246 | 1.7 | 3.5 | 0.00 | 0.00 | 0.00 | 64 | 1014.1 |
| 20260507123738 | 49 | 251 | 3.5 | 4.3 | 0.00 | 0.00 | 0.00 | 62 | 1014.0 |
| 20260507123236 | 49 | 207 | 3.5 | 3.5 | 0.00 | 0.00 | 0.00 | 64 | 1014.1 |
| 20260507122731 | 49 | 217 | 1.7 | 6.1 | 0.00 | 0.00 | 0.00 | 64 | 1014.0 |
| 20260507122227 | 49 | 218 | 7.0 | 7.0 | 0.00 | 0.00 | 0.00 | 65 | 1013.9 |
| 20260507121722 | 48 | 190 | 3.5 | 6.1 | 0.00 | 0.00 | 0.00 | 66 | 1014.0 |
| 20260507121218 | 48 | 226 | 1.7 | 2.6 | 0.00 | 0.00 | 0.00 | 68 | 1014.0 |
| 20260507120715 | 47 | 152 | 1.7 | 2.6 | 0.00 | 0.00 | 0.00 | 71 | 1014.0 |
| 20260507120212 | 47 | 173 | 0.9 | 2.6 | 0.00 | 0.00 | 0.00 | 71 | 1014.0 |
| 20260507115708 | 46 | 240 | 0.0 | 3.5 | 0.00 | 0.00 | 0.00 | 74 | 1014.1 |
| 20260507115204 | 44 | 239 | 0.0 | 2.6 | 0.00 | 0.00 | 0.00 | 75 | 1014.2 |
| 20260507114659 | 44 | 239 | 0.0 | 0.9 | 0.00 | 0.00 | 0.00 | 77 | 1014.2 |
| 20260507114157 | 44 | 222 | 1.7 | 2.6 | 0.00 | 0.00 | 0.00 | 78 | 1014.1 |
| 20260507113654 | 44 | 220 | 1.7 | 2.6 | 0.00 | 0.00 | 0.00 | 77 | 1014.2 |
| 20260507113151 | 44 | 233 | 0.9 | 2.6 | 0.00 | 0.00 | 0.00 | 78 | 1014.0 |
| 20260507112649 | 44 | 254 | 1.7 | 3.5 | 0.00 | 0.00 | 0.00 | 78 | 1014.1 |
| 20260507112145 | 43 | 228 | 1.7 | 2.6 | 0.00 | 0.00 | 0.00 | 79 | 1014.1 |
| 20260507111643 | 43 | 223 | 1.7 | 2.6 | 0.00 | 0.00 | 0.00 | 81 | 1014.0 |
| 20260507111139 | 42 | 227 | 0.0 | 2.6 | 0.00 | 0.00 | 0.00 | 82 | 1014.0 |
| 20260507110636 | 42 | 219 | 0.0 | 0.9 | 0.00 | 0.00 | 0.00 | 83 | 1013.9 |
| 20260507110133 | 41 | 226 | 0.9 | 0.9 | 0.00 | 0.00 | 0.00 | 84 | 1014.1 |
| 20260507105629 | 41 | 225 | 0.0 | 0.9 | 0.00 | 0.00 | 0.00 | 86 | 1013.9 |
| 20260507105125 | 41 | 225 | 0.0 | 0.0 | 0.00 | 0.00 | 0.00 | 87 | 1013.8 |
| 20260507104623 | 40 | 225 | 0.0 | 0.0 | 0.00 | 0.00 | 0.00 | 88 | 1013.8 |
| 20260507104119 | 40 | 224 | 0.0 | 0.9 | 0.00 | 0.00 | 0.00 | 89 | 1013.9 |
| 20260507103615 | 40 | 224 | 0.0 | 0.0 | 0.00 | 0.00 | 0.00 | 88 | 1013.7 |
| 20260507103112 | 39 | 225 | 0.0 | 0.9 | 0.00 | 0.00 | 0.00 | 89 | 1013.5 |
| 20260507102609 | 39 | 227 | 0.0 | 0.9 | 0.00 | 0.00 | 0.00 | 90 | 1013.7 |
| 20260507102105 | 39 | 227 | 0.0 | 0.0 | 0.00 | 0.00 | 0.00 | 90 | 1013.8 |
| 20260507101601 | 39 | 228 | 0.0 | 0.0 | 0.00 | 0.00 | 0.00 | 90 | 1013.7 |
| 20260507101057 | 40 | 227 | 0.0 | 0.0 | 0.00 | 0.00 | 0.00 | 90 | 1013.8 |
| 20260507100554 | 40 | 262 | 0.0 | 0.9 | 0.00 | 0.00 | 0.00 | 91 | 1013.5 |
| 20260507100052 | 39 | 262 | 0.9 | 0.9 | 0.00 | 0.00 | 0.00 | 93 | 1013.5 |
| 20260507095550 | 39 | 262 | 1.7 | 2.6 | 0.00 | 0.00 | 0.00 | 95 | 1013.7 |
| 20260507095046 | 39 | 205 | 0.0 | 0.9 | 0.00 | 0.00 | 0.00 | 96 | 1013.5 |
| 20260507094542 | 39 | 111 | 0.9 | 0.9 | 0.00 | 0.00 | 0.00 | 97 | 1013.4 |
| 20260507094040 | 39 | 104 | 0.9 | 0.9 | 0.00 | 0.00 | 0.00 | 97 | 1013.5 |
| 20260507093537 | 38 | 78 | 0.0 | 0.0 | 0.00 | 0.00 | 0.00 | 97 | 1013.4 |
| 20260507093036 | 38 | 79 | 0.0 | 0.9 | 0.00 | 0.00 | 0.00 | 97 | 1013.7 |
| 20260507092532 | 37 | 72 | 0.0 | 0.0 | 0.00 | 0.00 | 0.00 | 97 | 1013.8 |
| 20260507092029 | 37 | 72 | 0.0 | 0.9 | 0.00 | 0.00 | 0.00 | 97 | 1013.7 |
| 20260507091525 | 37 | 72 | 0.0 | 0.0 | 0.00 | 0.00 | 0.00 | 97 | 1013.7 |
| 20260507091021 | 36 | 72 | 0.0 | 0.0 | 0.00 | 0.00 | 0.00 | 97 | 1013.7 |
| 20260507090517 | 37 | 72 | 0.0 | 0.0 | 0.00 | 0.00 | 0.00 | 97 | 1013.8 |
| 20260507090014 | 37 | 72 | 0.0 | 0.0 | 0.00 | 0.00 | 0.00 | 97 | 1013.8 |
| 20260507085511 | 37 | 72 | 0.0 | 0.0 | 0.00 | 0.00 | 0.00 | 97 | 1013.7 |
| 20260507085008 | 37 | 72 | 0.0 | 0.0 | 0.00 | 0.00 | 0.00 | 97 | 1014.0 |
| 20260507084505 | 37 | 72 | 0.0 | 0.0 | 0.00 | 0.00 | 0.00 | 97 | 1013.9 |
| 20260507084002 | 36 | 72 | 0.0 | 0.0 | 0.00 | 0.00 | 0.00 | 97 | 1013.8 |
| 20260507083458 | 36 | 72 | 0.0 | 0.0 | 0.00 | 0.00 | 0.00 | 96 | 1013.7 |